Miscellaneous Local Product
Issued by NWS Hastings, NE

Home | Current Version | Previous Version | Text Only | Print | Product List | Glossary Off
Versions: 1 2 3 4 5 6 7 8 9 10 11 12 13 14 15 16 17 18 19 20 21 22 23 24 25 26 27 28 29 30 31 32 33 34 35 36 37 38 39 40 41 42 43 44 45 46 47 48 49 50

379
AXUS43 KGID 182002
MISGRI

GID CWA HOURLY WEATHER ROUNDUP
NATIONAL WEATHER SERVICE HASTINGS NE
300 PM CDT WED OCT 18 2017

NOTE: "FAIR" INDICATES FEW OR NO CLOUDS BELOW 12,000 FEET WITH NO
SIGNIFICANT WEATHER AND/OR OBSTRUCTIONS TO VISIBILITY.

...SOUTH CENTRAL NEBRASKA...

CITY           SKY/WX    TMP DP  RH WIND       PRES   REMARKS
GRAND ISLAND   SUNNY     77  37  23 N13       29.96S
HASTINGS       SUNNY     76  39  26 N14G20    29.96S
KEARNEY        SUNNY     75  37  25 N17G24    29.98R
ORD            SUNNY     73  32  22 N16G22    30.00R
YORK           SUNNY     75  41  29 N7        29.94S
AURORA         SUNNY     76  38  25 N6        29.95S
LEXINGTON      SUNNY     74  33  21 N20G25    30.01R
HOLDREGE       SUNNY     76  38  26 N15       29.98S
HEBRON         SUNNY     76  48  37 SW9       29.94S

...NEBRASKA PANHANDLE...

CITY           SKY/WX    TMP DP  RH WIND       PRES   REMARKS
CHADRON        SUNNY     68  26  20 E8        30.08F
ALLIANCE       SUNNY     69  26  20 E7        30.09F
SCOTTSBLUFF    SUNNY     72  23  16 SE9       30.09F
SIDNEY         SUNNY     73  22  14 E6        30.12S

...WESTERN AND NORTH CENTRAL NEBRASKA...

CITY           SKY/WX    TMP DP  RH WIND       PRES   REMARKS
VALENTINE      SUNNY     69  29  22 N9        30.07S
AINSWORTH      SUNNY     66  35  30 N14G22    30.06S
ONEILL         SUNNY     70  37  29 N14G20    30.02R
BROKEN BOW     SUNNY     73  36  25 N13G25    30.02S
IMPERIAL       SUNNY     79  20  11 NE13      30.05F
NORTH PLATTE   SUNNY     75  32  20 NE13      30.04S
MCCOOK         SUNNY     80  32  17 N18G28    30.00F

...EASTERN NEBRASKA...

CITY           SKY/WX    TMP DP  RH WIND       PRES   REMARKS
NORFOLK        SUNNY     73  37  27 N18       29.93R
SO SIOUX CITY  SUNNY     72  47  40 N10       29.93R
TEKAMAH        SUNNY     78  45  30 NW8       29.91S
COLUMBUS       SUNNY     76  40  27 N10G16    29.94R
ALBION         SUNNY     74  38  27 N15       29.97R
OMAHA EPPLEY   MOSUNNY   75  48  38 SW9       29.91F
OFFUTT AFB     SUNNY     75  47  37 S12       29.91F
MILLARD        SUNNY     77  51  40 SW6       29.91F
LINCOLN        SUNNY     78  48  34 W10       29.93S
NEBRASKA CITY  SUNNY     73  51  45 SW8G16    29.94S
BEATRICE       SUNNY     73  51  45 SW10      29.94R
FALLS CITY     SUNNY     72  49  44 S10       29.95S

...NORTHERN KANSAS...

CITY           SKY/WX    TMP DP  RH WIND       PRES   REMARKS
GOODLAND       CLOUDY    81  22  11 N13       30.04F
HILL CITY      CLOUDY    84  30  14 N13G20    29.98S
NORTON         CLEAR     81  18   9 N13       29.98S
PHILLIPSBURG   SUNNY     81  32  17 N8        29.96S
SMITH CENTER   SUNNY     77  39  25 NW10      29.96R
HAYS           SUNNY     82  39  21 NW3       29.95F
RUSSELL        MOSUNNY   82  44  26 SW12      29.93F
CONCORDIA      MOSUNNY   75  51  43 S10       29.94S
SALINA         PTSUNNY   75  51  43 S13       29.95F
TOPEKA         MOSUNNY   75  49  39 S13G22    29.96F



USA.gov is the U.S. government's official web portal to all federal, state and local government web resources and services.